Chicago Midway, IL

1:28 AM CST on November 18, 2019 (GMT -0600)
Chicago-Midway

Weather History for KMDW - October, 2019

Change the Weather History Date:

Wednesday, October 23, 2019

  Actual Average Record
Temperature  
Mean Temperature 50 °F 52 °F  
Max Temperature 60 °F 60 °F 85 °F (1963)
Min Temperature 40 °F 44 °F 25 °F (1981)
Degree Days  
Heating Degree Days 15 13  
Month to date heating degree days 220 228  
Since 1 July heating degree days 221 310  
Cooling Degree Days 0 0  
Month to date cooling degree days 21 13  
Year to date cooling degree days 1131 1042  
Moisture  
Dew Point 36 °F    
Average Humidity 57    
Maximum Humidity 80    
Minimum Humidity 30    
Precipitation  
Precipitation 0.01 in 0.11 in 1.48 in (2009)
Month to date precipitation 1.58 2.35  
Year to date precipitation 39.40 32.21  
Sea Level Pressure  
Sea Level Pressure 29.93 in    
Wind  
Wind Speed 9 mph (SW)    
Max Wind Speed 18 mph    
Max Gust Speed 28 mph    
Visibility 10 miles    
Events Rain    
T = Trace of Precipitation, MM = Missing Value Source: NWS Daily Summary

Daily Weather History Graph

Daily Weather History Graph

Search for Another Location

Airport or City:

Astronomy

Oct. 23, 2019 Rise Set
Actual Time 7:12 AM CDT 5:57 PM CDT
Civil Twilight 6:43 AM CDT 6:26 PM CDT
Nautical Twilight 6:11 AM CDT 6:58 PM CDT
Astronomical Twilight 5:39 AM CDT 7:30 PM CDT
Moon 1:23 AM CDT (10/23) 3:53 PM CDT (10/23)
Length of Visible Light 11h 42m
Length of Day
10h 45m
Waning Crescent, 26% of the Moon is Illuminated
Oct 23
Waning Crescent
Oct 27
New
Nov 4
First Quarter
Nov 12
Full
Nov 19
Last Quarter

Hourly Weather History & Observations

Time (CDT) Temp. Windchill Dew Point Humidity Pressure Visibility Wind Dir Wind Speed Gust Speed Precip Events Conditions
12:53 AM 45.0 °F 38.5 °F 30.9 °F 58% 29.83 in 10.0 mi WSW 13.8 mph 23.0 mph N/A   Clear
1:53 AM 44.1 °F 37.7 °F 30.9 °F 60% 29.84 in 10.0 mi WSW 12.7 mph - N/A   Clear
3:53 AM 43.0 °F 36.8 °F 30.0 °F 60% 29.86 in 10.0 mi SW 11.5 mph - N/A   Clear
4:53 AM 43.0 °F 36.8 °F 30.9 °F 62% 29.88 in 10.0 mi WSW 11.5 mph - N/A   Clear
5:53 AM 42.1 °F 35.2 °F 30.9 °F 65% 29.91 in 10.0 mi SW 12.7 mph - N/A   Clear
6:53 AM 41.0 °F 35.8 °F 30.9 °F 67% 29.93 in 10.0 mi SSW 8.1 mph - N/A   Clear
7:53 AM 41.0 °F 35.2 °F 32.0 °F 70% 29.95 in 10.0 mi SSW 9.2 mph - N/A   Partly Cloudy
8:53 AM 43.0 °F 36.8 °F 33.1 °F 68% 29.97 in 10.0 mi SSW 11.5 mph - N/A   Partly Cloudy
9:53 AM 48.0 °F - 34.0 °F 58% 29.96 in 10.0 mi SW 10.4 mph - N/A   Scattered Clouds
10:53 AM 50.0 °F - 35.1 °F 57% 29.98 in 10.0 mi SW 9.2 mph - N/A   Mostly Cloudy
11:53 AM 51.1 °F - 35.1 °F 54% 29.98 in 10.0 mi SW 11.5 mph - N/A   Overcast
12:53 PM 53.1 °F - 37.9 °F 57% 29.96 in 10.0 mi SW 6.9 mph - 0.00 in   Overcast
1:53 PM 55.9 °F - 37.9 °F 51% 29.94 in 10.0 mi SSW 11.5 mph 18.4 mph N/A   Mostly Cloudy
2:53 PM 57.9 °F - 37.9 °F 47% 29.91 in 10.0 mi SSW 9.2 mph - N/A   Mostly Cloudy
3:53 PM 60.1 °F - 37.0 °F 42% 29.92 in 10.0 mi South 9.2 mph - N/A   Mostly Cloudy
4:53 PM 59.0 °F - 36.0 °F 42% 29.90 in 10.0 mi SSW 5.8 mph - N/A   Mostly Cloudy
5:53 PM 59.0 °F - 37.0 °F 44% 29.90 in 10.0 mi South 5.8 mph - N/A   Mostly Cloudy
6:53 PM 57.9 °F - 37.9 °F 47% 29.92 in 10.0 mi SW 4.6 mph - N/A   Overcast
7:53 PM 55.9 °F - 39.9 °F 55% 29.95 in 10.0 mi WNW 3.5 mph - N/A   Overcast
8:53 PM 55.0 °F - 45.0 °F 69% 29.94 in 10.0 mi Calm Calm - 0.00 in Rain Light Rain
9:53 PM 55.0 °F - 46.0 °F 72% 29.94 in 10.0 mi North 5.8 mph - 0.00 in Rain Light Rain
10:53 PM 53.1 °F - 46.0 °F 77% 29.96 in 10.0 mi North 8.1 mph - 0.01 in   Overcast
11:53 PM 50.0 °F - 44.1 °F 80% 30.01 in 10.0 mi North 15.0 mph 26.5 mph 0.00 in Rain Light Rain